DW4784 Hoodsport WA US current weather conditions

sailwx.info

Wind from 355 at 2 knots gusting 3

Air temperature 19.4° C
Dewpoint 14.9° C

Last reported at 2020-Aug-07 18:00 UTC.
Time now 2020-Aug-07 19:02 UTC

Location: N 47°22' W 123°09'.
View on Google Maps.

See reports from other nearby stations

  
Tides and Currents Weather Stations Pressure Air Temp Water Temp Dewpoint Dewpoint Depression Visibility Wind Speed Wind Dir Waves Ship Positions
date/time (UTC)wind fromknots sea level pressurealtimeterstation pressurevisibilityair tempwater tempwave heightnotes
2020-Aug-07 18:00 355 2 gusting 3 19.4
2020-Aug-07 17:55 360 1 gusting 3 19.4
2020-Aug-07 17:50 347 2 gusting 4 19.4
2020-Aug-07 17:45 348 2 gusting 5 19.4
2020-Aug-07 17:40 014 2 gusting 5 19.4
2020-Aug-07 17:35 009 2 gusting 4 18.9
2020-Aug-07 17:30 333 3 gusting 4 18.9
2020-Aug-07 17:25 012 2 gusting 4 18.9
2020-Aug-07 17:20 014 1 gusting 4 18.9
2020-Aug-07 17:15 360 1 gusting 4 18.9
2020-Aug-07 17:10 005 2 gusting 4 18.3
2020-Aug-07 17:05 017 2 gusting 3 18.3
2020-Aug-07 17:00 009 2 gusting 3 18.3
2020-Aug-07 16:55 018 1 gusting 3 17.8
2020-Aug-07 16:50 032 1 gusting 3 17.8
2020-Aug-07 16:45 042 1 gusting 3 17.2
2020-Aug-07 16:40 049 1 gusting 3 17.2
2020-Aug-07 16:35 070 1 gusting 2 16.7
2020-Aug-07 16:30 070 1 gusting 3 16.1
2020-Aug-07 16:25 070 1 gusting 3 16.1
2020-Aug-07 16:20 087 2 gusting 5 16.1
2020-Aug-07 16:15 087 2 gusting 5 15.6
2020-Aug-07 16:10 087 2 gusting 5 15.6
2020-Aug-07 16:05 088 2 gusting 5 15.0
2020-Aug-07 16:00 086 2 gusting 5 15.0
2020-Aug-07 15:55 080 2 gusting 3 14.4
2020-Aug-07 15:50 080 2 gusting 5 14.4
2020-Aug-07 15:45 096 2 gusting 5 13.9
2020-Aug-07 15:40 096 2 gusting 6 13.9
2020-Aug-07 15:35 096 3 gusting 6 13.3
2020-Aug-07 15:30 092 3 gusting 6 13.3
2020-Aug-07 15:25 103 4 gusting 6 13.3
2020-Aug-07 15:20 108 5 gusting 7 12.8
2020-Aug-07 15:15 105 3 gusting 7 12.8
2020-Aug-07 15:10 093 3 gusting 5 12.8
2020-Aug-07 15:05 080 0 gusting 5 12.8
2020-Aug-07 15:00 098 2 gusting 5 12.8
2020-Aug-07 14:55 087 12.8
2020-Aug-07 14:50 086 1 gusting 3 12.8
2020-Aug-07 14:45 083 0 gusting 2 12.8
2020-Aug-07 14:40 259 0 gusting 1 12.8
2020-Aug-07 14:35 264 12.2
2020-Aug-07 14:30 264 0 gusting 1 12.2
2020-Aug-07 14:25 264 11.7
2020-Aug-07 14:20 264 11.7
2020-Aug-07 14:15 264 11.7
2020-Aug-07 14:10 264 11.7
2020-Aug-07 14:05 264 11.7
2020-Aug-07 14:00 264 0 gusting 1 11.7
2020-Aug-07 13:55 249 0 gusting 1 11.7
2020-Aug-07 13:50 249 1 gusting 2 11.7
2020-Aug-07 13:45 249 1 gusting 2 11.7
2020-Aug-07 13:40 249 1 gusting 3 11.7
2020-Aug-07 13:35 249 1 gusting 3 12.2
2020-Aug-07 13:30 249 1 gusting 1 12.2
2020-Aug-07 13:25 249 0 gusting 1 12.2
2020-Aug-07 13:20 249 12.2
2020-Aug-07 13:15 249 12.2
2020-Aug-07 13:10 249 12.2
2020-Aug-07 13:05 249 12.2
2020-Aug-07 13:00 249 12.2
2020-Aug-07 12:55 249 12.2
2020-Aug-07 12:50 249 12.2
2020-Aug-07 12:45 249 12.2
2020-Aug-07 12:40 249 12.2
2020-Aug-07 12:35 249 12.2
2020-Aug-07 12:30 249 12.2
2020-Aug-07 12:25 249 12.2
2020-Aug-07 12:20 249 12.2
2020-Aug-07 12:15 249 12.2
2020-Aug-07 12:10 249 12.2
2020-Aug-07 12:05 249 12.2
2020-Aug-07 12:00 249 12.2
2020-Aug-07 11:55 249 12.2
2020-Aug-07 11:50 249 12.2
2020-Aug-07 11:45 249 11.7
2020-Aug-07 11:40 249 11.7
2020-Aug-07 11:35 249 11.7
2020-Aug-07 11:30 249 11.7
2020-Aug-07 11:25 249 11.7
2020-Aug-07 11:20 249 11.7
2020-Aug-07 11:15 249 11.7
2020-Aug-07 11:10 249 11.7
2020-Aug-07 11:05 249 11.7
2020-Aug-07 11:00 249 11.7
2020-Aug-07 10:55 249 11.7
2020-Aug-07 10:50 249 11.7
2020-Aug-07 10:45 249 11.7
2020-Aug-07 10:40 249 0 gusting 1 11.7
2020-Aug-07 10:35 249 0 gusting 1 11.7
2020-Aug-07 10:30 249 11.7
2020-Aug-07 10:25 249 1 gusting 2 11.7
2020-Aug-07 10:20 249 0 gusting 2 11.7
2020-Aug-07 10:15 249 1 gusting 2 11.7
2020-Aug-07 10:10 249 0 gusting 2 11.7
2020-Aug-07 10:05 249 1 gusting 1 11.7
2020-Aug-07 10:00 249 1 gusting 1 11.7
2020-Aug-07 09:55 249 0 gusting 1 11.7
2020-Aug-07 09:50 249 0 gusting 1 12.2
2020-Aug-07 09:45 249 1 gusting 2 12.2
2020-Aug-07 09:40 249 1 gusting 2 12.2
2020-Aug-07 09:35 249 1 gusting 2 12.2
2020-Aug-07 09:30 249 1 gusting 2 12.2
2020-Aug-07 09:25 249 1 gusting 2 12.2
2020-Aug-07 09:20 249 1 gusting 2 12.2
2020-Aug-07 09:15 249 2 gusting 2 12.2
2020-Aug-07 09:10 249 2 gusting 2 12.2
2020-Aug-07 09:05 249 1 gusting 2 12.2
2020-Aug-07 09:00 249 1 gusting 2 12.8
2020-Aug-07 08:55 249 1 gusting 2 12.8
2020-Aug-07 08:50 249 0 gusting 1 12.8
2020-Aug-07 08:45 249 1 gusting 2 12.8
2020-Aug-07 08:40 249 1 gusting 2 12.8
2020-Aug-07 08:35 249 1 gusting 1 12.8
2020-Aug-07 08:30 249 0 gusting 2 12.2
2020-Aug-07 08:25 249 1 gusting 2 12.2
2020-Aug-07 08:20 249 1 gusting 1 12.2
2020-Aug-07 08:15 249 1 gusting 2 12.2
2020-Aug-07 08:10 249 1 gusting 2 12.2
2020-Aug-07 08:05 249 1 gusting 2 12.2
2020-Aug-07 08:00 249 1 gusting 2 12.2
2020-Aug-07 07:55 249 1 gusting 2 12.2
2020-Aug-07 07:50 249 1 gusting 2 12.2
2020-Aug-07 07:45 249 1 gusting 2 12.2
2020-Aug-07 07:40 249 1 gusting 2 12.2
2020-Aug-07 07:35 249 2 gusting 2 12.2
2020-Aug-07 07:30 249 1 gusting 2 12.2
2020-Aug-07 07:25 249 1 gusting 3 12.2
2020-Aug-07 07:20 249 1 gusting 3 12.2
2020-Aug-07 07:15 257 1 gusting 2 12.2
2020-Aug-07 07:10 257 1 gusting 2 12.8
2020-Aug-07 07:05 258 1 gusting 2 12.8
2020-Aug-07 07:00 286 1 gusting 2 12.8
2020-Aug-07 06:55 286 1 gusting 2 12.8
2020-Aug-07 06:50 286 2 gusting 2 12.8
2020-Aug-07 06:45 286 1 gusting 2 12.8
2020-Aug-07 06:40 286 0 gusting 2 12.8
2020-Aug-07 06:35 286 0 gusting 2 13.3
2020-Aug-07 06:30 286 0 gusting 2 13.3
2020-Aug-07 06:25 286 1 gusting 2 13.3
2020-Aug-07 06:20 286 1 gusting 2 13.3
2020-Aug-07 06:15 286 2 gusting 2 13.3
2020-Aug-07 06:12 287 1 gusting 2 13.9
2020-Aug-07 06:05 287 1 gusting 2 13.9
2020-Aug-07 06:00 287 2 gusting 2 13.9
2020-Aug-07 05:55 287 1 gusting 2 13.9
2020-Aug-07 05:50 287 1 gusting 2 13.9
2020-Aug-07 05:45 287 1 gusting 2 13.9
2020-Aug-07 05:40 287 0 gusting 2 14.4
2020-Aug-07 05:35 287 1 gusting 2 14.4
2020-Aug-07 05:30 287 0 gusting 1 14.4
2020-Aug-07 05:25 287 1 gusting 1 14.4
2020-Aug-07 05:20 287 0 gusting 3 15.0
2020-Aug-07 05:15 287 1 gusting 3 15.0
2020-Aug-07 05:10 302 0 gusting 2 15.0
2020-Aug-07 05:05 302 0 gusting 1 15.0
2020-Aug-07 05:00 302 15.0
2020-Aug-07 04:55 302 15.6
2020-Aug-07 04:50 302 0 gusting 2 15.6
2020-Aug-07 04:45 292 0 gusting 2 15.6
2020-Aug-07 04:40 014 15.6
2020-Aug-07 04:35 014 16.1
2020-Aug-07 04:30 014 16.1
2020-Aug-07 04:25 014 16.1
2020-Aug-07 04:20 014 0 gusting 1 16.1
2020-Aug-07 04:15 015 16.7
2020-Aug-07 04:10 015 16.7
2020-Aug-07 04:05 015 0 gusting 1 16.7
2020-Aug-07 04:00 327 16.7
2020-Aug-07 03:55 327 16.7
2020-Aug-07 03:50 327 16.7
2020-Aug-07 03:45 327 16.7
2020-Aug-07 03:40 327 16.7
2020-Aug-07 03:35 327 17.2
2020-Aug-07 03:30 327 17.2
2020-Aug-07 03:25 229 17.2
2020-Aug-07 03:20 233 0 gusting 3 17.2
2020-Aug-07 03:15 109 17.8
2020-Aug-07 03:10 109 17.8
2020-Aug-07 03:05 094 17.8
2020-Aug-07 03:00 094 0 gusting 2 18.3
2020-Aug-07 02:55 217 18.3
2020-Aug-07 02:50 217 18.3
2020-Aug-07 02:45 217 0 gusting 2 18.3
2020-Aug-07 02:40 234 0 gusting 2 18.3
2020-Aug-07 02:35 033 0 gusting 1 18.3
2020-Aug-07 02:30 063 0 gusting 3 18.3
2020-Aug-07 02:25 016 1 gusting 2 18.3
2020-Aug-07 02:20 084 18.3
2020-Aug-07 02:15 047 0 gusting 4 18.3
2020-Aug-07 02:10 348 2 gusting 4 18.3
2020-Aug-07 02:05 180 0 gusting 5 18.9
2020-Aug-07 02:00 339 1 gusting 7 18.9
2020-Aug-07 01:55 346 3 gusting 7 18.9
2020-Aug-07 01:50 085 1 gusting 4 18.9
2020-Aug-07 01:45 111 1 gusting 5 18.9
2020-Aug-07 01:40 053 2 gusting 5 18.9
2020-Aug-07 01:35 336 1 gusting 5 18.9
2020-Aug-07 01:30 024 2 gusting 6 18.3
2020-Aug-07 01:25 113 1 gusting 4 18.3
2020-Aug-07 01:20 036 2 gusting 4 18.3
2020-Aug-07 01:15 190 0 gusting 3 17.8
2020-Aug-07 01:10 360 0 gusting 7 17.8
2020-Aug-07 01:05 105 3 gusting 7 17.8
2020-Aug-07 01:00 322 2 gusting 11 17.8
2020-Aug-07 00:55 016 4 gusting 12 17.8
2020-Aug-07 00:50 337 8 gusting 11 17.8
2020-Aug-07 00:45 345 8 gusting 11 17.8
2020-Aug-07 00:40 327 7 gusting 11 17.8
2020-Aug-07 00:35 305 7 gusting 11 17.2
2020-Aug-07 00:30 315 6 gusting 11 17.2
2020-Aug-07 00:25 321 7 gusting 12 17.2
2020-Aug-07 00:20 339 9 gusting 12 17.2
2020-Aug-07 00:15 342 7 gusting 11 17.2
2020-Aug-07 00:10 344 9 gusting 11 17.2
2020-Aug-07 00:05 329 8 gusting 11 17.2
2020-Aug-07 00:00 321 8 gusting 13 17.2
2020-Aug-06 23:55 341 10 gusting 13 17.8
2020-Aug-06 23:50 329 8 gusting 12 17.8
2020-Aug-06 23:45 337 7 gusting 12 17.8
2020-Aug-06 23:40 325 9 gusting 12 17.2
2020-Aug-06 23:35 338 8 gusting 11 17.2
2020-Aug-06 23:30 316 8 gusting 13 17.2
2020-Aug-06 23:25 319 9 gusting 14 17.2
2020-Aug-06 23:20 333 11 gusting 14 17.2
2020-Aug-06 23:15 320 9 gusting 13 17.2
2020-Aug-06 23:10 328 9 gusting 13 17.2
2020-Aug-06 23:05 327 10 gusting 14 17.2
2020-Aug-06 23:00 327 7 gusting 15 17.2
2020-Aug-06 22:55 334 11 gusting 14 17.2
2020-Aug-06 22:50 321 9 gusting 13 17.2
2020-Aug-06 22:45 306 9 gusting 13 17.2
2020-Aug-06 22:40 315 6 gusting 13 17.2
2020-Aug-06 22:35 308 8 gusting 13 17.2
2020-Aug-06 22:30 340 8 gusting 13 17.2
2020-Aug-06 22:25 341 10 gusting 15 17.2
2020-Aug-06 22:20 319 9 gusting 15 16.7
2020-Aug-06 22:15 348 10 gusting 16 16.7
2020-Aug-06 22:10 313 13 gusting 16 16.7
2020-Aug-06 22:05 317 12 gusting 17 16.7
2020-Aug-06 22:00 304 13 gusting 17 17.2
2020-Aug-06 21:55 317 11 gusting 18 17.2
2020-Aug-06 21:50 325 13 gusting 18 17.2
2020-Aug-06 21:45 310 11 gusting 18 16.7
2020-Aug-06 21:40 319 12 gusting 18 17.2
2020-Aug-06 21:35 319 13 gusting 18 16.7
2020-Aug-06 21:30 296 12 gusting 19 17.2
2020-Aug-06 21:25 317 13 gusting 19 17.2
2020-Aug-06 21:20 300 9 gusting 19 17.2
2020-Aug-06 21:15 325 13 gusting 19 17.8
2020-Aug-06 21:10 320 9 gusting 19 17.8
2020-Aug-06 21:05 288 8 gusting 19 17.8
2020-Aug-06 21:00 338 6 gusting 15 18.3
2020-Aug-06 20:55 264 7 gusting 18 17.8
2020-Aug-06 20:50 332 6 gusting 18 17.8
2020-Aug-06 20:45 292 7 gusting 17 18.3
2020-Aug-06 20:40 303 9 gusting 17 17.8
2020-Aug-06 20:35 321 6 gusting 19 17.8
2020-Aug-06 20:30 307 9 gusting 19 17.2
2020-Aug-06 20:25 300 13 gusting 22 17.8
2020-Aug-06 20:20 337 16 gusting 22 17.8
2020-Aug-06 20:15 327 13 gusting 18 17.8
2020-Aug-06 20:10 295 12 gusting 18 17.8
2020-Aug-06 20:05 327 11 gusting 18 18.3
2020-Aug-06 20:00 335 10 gusting 17 18.3
2020-Aug-06 19:55 298 8 gusting 13 18.3
2020-Aug-06 19:50 315 8 gusting 16 18.3
2020-Aug-06 19:45 335 9 gusting 16 18.3
2020-Aug-06 19:40 316 11 gusting 15 18.3
2020-Aug-06 19:35 323 11 gusting 18 17.8
2020-Aug-06 19:30 315 6 gusting 16 17.2
2020-Aug-06 19:25 360 8 gusting 16 16.7
2020-Aug-06 19:20 326 4 gusting 17 17.2
2020-Aug-06 19:15 304 11 gusting 17 17.2
2020-Aug-06 19:10 340 10 gusting 20 17.2
2020-Aug-06 19:05 309 13 gusting 20 17.2
2020-Aug-06 19:00 336 15 gusting 19 17.2
2020-Aug-06 18:55 331 14 gusting 19 17.8
2020-Aug-06 18:50 322 11 gusting 17 17.2
2020-Aug-06 18:45 292 13 gusting 17 17.8
2020-Aug-06 18:40 322 12 gusting 17 17.8
2020-Aug-06 18:35 338 11 gusting 18 17.8
2020-Aug-06 18:30 329 11 gusting 18 17.8
2020-Aug-06 18:25 321 12 gusting 18 18.3
2020-Aug-06 18:20 325 10 gusting 16 18.3
2020-Aug-06 18:15 319 12 gusting 15 18.3
2020-Aug-06 18:10 324 11 gusting 19 18.3
2020-Aug-06 18:05 355 14 gusting 19 18.3
2020-Aug-06 18:00 325 12 gusting 16 18.9
2020-Aug-06 17:55 325 9 gusting 13 18.9
2020-Aug-06 17:50 329 10 gusting 13 18.9
2020-Aug-06 17:45 320 9 gusting 19 19.4
2020-Aug-06 17:40 338 11 gusting 19 20.6
2020-Aug-06 17:35 331 10 gusting 15 22.2
2020-Aug-06 17:30 324 0 gusting 9 22.2
2020-Aug-06 17:25 169 1 gusting 10 22.2
2020-Aug-06 17:20 163 3 gusting 12 22.2
2020-Aug-06 17:15 252 4 gusting 11 22.2
2020-Aug-06 17:10 144 1 gusting 6 21.7
2020-Aug-06 17:05 161 2 gusting 5 21.1
2020-Aug-06 17:00 117 2 gusting 6 20.6
2020-Aug-06 16:55 072 2 gusting 6 20.6
2020-Aug-06 16:50 348 2 gusting 6 20.0
2020-Aug-06 16:45 086 3 gusting 8 20.0
2020-Aug-06 16:40 074 5 gusting 8 19.4
2020-Aug-06 16:35 026 2 gusting 5 19.4
2020-Aug-06 16:30 281 1 gusting 5 19.4
2020-Aug-06 16:25 089 1 gusting 4 18.9
2020-Aug-06 16:20 055 0 gusting 6 18.9
2020-Aug-06 16:15 011 2 gusting 6 18.3
2020-Aug-06 16:10 023 2 gusting 8 17.8
2020-Aug-06 16:05 078 2 gusting 8 17.8
2020-Aug-06 16:00 043 3 gusting 5 17.2
2020-Aug-06 15:55 035 2 gusting 4 16.7
2020-Aug-06 15:50 046 1 gusting 4 16.1
2020-Aug-06 15:45 049 0 gusting 6 16.1
2020-Aug-06 15:40 024 3 gusting 6 15.6
2020-Aug-06 15:35 355 2 gusting 4 15.6
2020-Aug-06 15:30 053 1 gusting 4 15.0
2020-Aug-06 15:25 225 0 gusting 3 15.0
2020-Aug-06 15:20 205 0 gusting 6 15.0
2020-Aug-06 15:15 220 1 gusting 6 15.0
2020-Aug-06 15:10 252 1 gusting 8 15.0
2020-Aug-06 15:05 187 1 gusting 8 15.0
2020-Aug-06 15:00 234 1 gusting 6 15.0
2020-Aug-06 14:55 164 1 gusting 6 15.0
2020-Aug-06 14:50 257 2 gusting 9 15.6
2020-Aug-06 14:45 160 3 gusting 9 15.6
2020-Aug-06 14:40 208 0 gusting 5 15.6
2020-Aug-06 14:35 180 0 gusting 5 15.6
2020-Aug-06 14:30 333 0 gusting 1 15.6
2020-Aug-06 14:25 333 0 gusting 2 15.6
2020-Aug-06 14:20 269 1 gusting 5 15.6
2020-Aug-06 14:15 314 0 gusting 5 15.6
2020-Aug-06 14:10 296 1 gusting 4 15.6
2020-Aug-06 14:05 310 1 gusting 4 15.6
2020-Aug-06 14:00 300 0 gusting 4 15.6
2020-Aug-06 13:55 100 15.6
2020-Aug-06 13:50 153 0 gusting 3 15.6
2020-Aug-06 13:45 084 0 gusting 6 15.6
2020-Aug-06 13:40 132 1 gusting 6 15.6
2020-Aug-06 13:35 157 1 gusting 4 15.6
2020-Aug-06 13:30 110 0 gusting 3 16.1
2020-Aug-06 13:25 165 0 gusting 5 16.1
2020-Aug-06 13:20 102 1 gusting 5 16.1
2020-Aug-06 13:15 078 0 gusting 2 16.1
2020-Aug-06 13:10 149 16.1
2020-Aug-06 13:05 080 16.1
2020-Aug-06 13:00 080 0 gusting 2 16.1
2020-Aug-06 12:55 079 16.1
2020-Aug-06 12:50 079 0 gusting 5 16.1
2020-Aug-06 12:45 123 0 gusting 6 16.1
2020-Aug-06 12:40 115 2 gusting 7 16.1
2020-Aug-06 12:35 101 3 gusting 6 16.1
2020-Aug-06 12:30 095 2 gusting 6 16.1
2020-Aug-06 12:25 102 2 gusting 5 16.1
2020-Aug-06 12:20 113 1 gusting 5 16.1
2020-Aug-06 12:15 092 16.1
2020-Aug-06 12:10 092 1 gusting 3 16.1
2020-Aug-06 12:05 101 0 gusting 3 16.1
2020-Aug-06 12:00 103 0 gusting 3 16.1
2020-Aug-06 11:55 103 2 gusting 5 16.1
2020-Aug-06 11:50 109 1 gusting 5 16.1
2020-Aug-06 11:45 098 2 gusting 5 16.7
2020-Aug-06 11:40 094 2 gusting 6 16.7
2020-Aug-06 11:35 098 1 gusting 6 16.7
2020-Aug-06 11:30 097 1 gusting 6 16.7
2020-Aug-06 11:25 099 0 gusting 3 16.7
2020-Aug-06 11:20 082 0 gusting 3 16.7
2020-Aug-06 11:15 042 0 gusting 3 16.7
2020-Aug-06 11:10 103 1 gusting 3 16.7
2020-Aug-06 11:05 090 0 gusting 6 16.7
2020-Aug-06 11:00 134 1 gusting 6 16.7
2020-Aug-06 10:55 112 16.7
2020-Aug-06 10:50 122 16.7
2020-Aug-06 10:45 080 1 gusting 6 16.7
2020-Aug-06 10:40 093 1 gusting 6 16.7
2020-Aug-06 10:35 121 0 gusting 4 16.7
2020-Aug-06 10:30 028 16.1
2020-Aug-06 10:25 117 16.1
2020-Aug-06 10:20 117 16.1
2020-Aug-06 10:15 142 15.6
2020-Aug-06 10:10 101 15.6
2020-Aug-06 10:05 169 15.6
2020-Aug-06 10:00 169 0 gusting 2 15.6
2020-Aug-06 09:55 192 0 gusting 6 15.6
2020-Aug-06 09:50 192 1 gusting 6 15.0
2020-Aug-06 09:45 327 15.0
2020-Aug-06 09:40 340 0 gusting 2 15.0
2020-Aug-06 09:35 349 0 gusting 2 15.0
2020-Aug-06 09:30 272 15.0
2020-Aug-06 09:25 272 15.0
2020-Aug-06 09:20 272 15.0
2020-Aug-06 09:15 272 15.0
2020-Aug-06 09:10 272 15.0
2020-Aug-06 09:05 272 15.0
2020-Aug-06 09:00 272 15.0
2020-Aug-06 08:55 272 15.0
2020-Aug-06 08:50 272 15.0
2020-Aug-06 08:45 272 15.0
2020-Aug-06 08:40 272 15.0
2020-Aug-06 08:35 272 15.0
2020-Aug-06 08:30 272 15.0
2020-Aug-06 08:25 272 15.0
2020-Aug-06 08:20 272 15.0
2020-Aug-06 08:15 272 1 gusting 1 15.0
2020-Aug-06 08:10 272 0 gusting 1 15.6
2020-Aug-06 08:05 272 1 gusting 1 15.6
2020-Aug-06 08:00 272 0 gusting 1 15.6
2020-Aug-06 07:55 272 1 gusting 1 15.6
2020-Aug-06 07:50 272 0 gusting 1 15.6
2020-Aug-06 07:45 272 1 gusting 1 15.6
2020-Aug-06 07:40 272 15.6
2020-Aug-06 07:35 272 0 gusting 1 15.6
2020-Aug-06 07:30 272 0 gusting 2 15.6
2020-Aug-06 07:25 272 0 gusting 3 15.6
2020-Aug-06 07:20 272 1 gusting 3 15.6
2020-Aug-06 07:15 293 1 gusting 3 15.6
2020-Aug-06 07:10 293 15.6
2020-Aug-06 07:05 293 0 gusting 1 15.6
2020-Aug-06 07:00 293 0 gusting 2 15.6
2020-Aug-06 06:55 293 0 gusting 2 16.1
2020-Aug-06 06:50 293 0 gusting 1 16.1
2020-Aug-06 06:45 293 16.1
2020-Aug-06 06:40 293 16.1
2020-Aug-06 06:35 293 16.1
2020-Aug-06 06:30 293 0 gusting 2 16.1
2020-Aug-06 06:25 293 0 gusting 2 16.1
2020-Aug-06 06:20 293 0 gusting 2 16.1
2020-Aug-06 06:15 053 16.7
2020-Aug-06 06:10 053 0 gusting 1 16.7
2020-Aug-06 06:05 053 16.7
2020-Aug-06 06:00 053 16.7
2020-Aug-06 05:55 053 16.7
2020-Aug-06 05:50 053 16.7
2020-Aug-06 05:45 053 16.7
2020-Aug-06 05:40 053 16.7
2020-Aug-06 05:35 053 0 gusting 3 16.7
2020-Aug-06 05:30 042 16.7
2020-Aug-06 05:25 042 17.2
2020-Aug-06 05:20 042 0 gusting 3 17.2
2020-Aug-06 05:15 042 0 gusting 3 17.2
2020-Aug-06 05:10 022 0 gusting 2 17.2
2020-Aug-06 05:05 022 0 gusting 3 17.2
2020-Aug-06 05:00 342 1 gusting 4 17.2
2020-Aug-06 04:55 338 0 gusting 4 17.2
2020-Aug-06 04:50 294 0 gusting 2 17.2
2020-Aug-06 04:45 294 0 gusting 3 17.8
2020-Aug-06 04:40 294 0 gusting 4 17.8
2020-Aug-06 04:35 061 2 gusting 4 17.8
2020-Aug-06 04:30 080 3 gusting 7 17.8
2020-Aug-06 04:25 058 3 gusting 7 17.8
2020-Aug-06 04:20 108 3 gusting 6 17.8
2020-Aug-06 04:15 072 2 gusting 6 17.8
2020-Aug-06 04:10 106 4 gusting 6 18.3
2020-Aug-06 04:05 084 3 gusting 6 18.3
2020-Aug-06 04:00 035 2 gusting 5 18.3
2020-Aug-06 03:55 051 4 gusting 7 18.3
2020-Aug-06 03:50 340 3 gusting 7 18.3
2020-Aug-06 03:45 332 3 gusting 6 18.9
2020-Aug-06 03:40 041 3 gusting 6 18.9
2020-Aug-06 03:35 075 3 gusting 6 18.9
2020-Aug-06 03:30 026 1 gusting 7 19.4
2020-Aug-06 03:25 030 2 gusting 7 19.4
2020-Aug-06 03:20 126 2 gusting 7 19.4
2020-Aug-06 03:15 258 1 gusting 7 19.4
2020-Aug-06 03:10 205 2 gusting 5 20.0
2020-Aug-06 03:05 332 1 gusting 6 20.0
2020-Aug-06 03:00 066 2 gusting 7 20.0
2020-Aug-06 02:55 338 2 gusting 7 20.6
2020-Aug-06 02:50 037 1 gusting 7 20.6
2020-Aug-06 02:45 061 1 gusting 6 20.6
2020-Aug-06 02:40 154 1 gusting 5 21.1
2020-Aug-06 02:35 185 2 gusting 5 21.1
2020-Aug-06 02:30 119 1 gusting 6 21.1
2020-Aug-06 02:25 296 1 gusting 6 21.1
2020-Aug-06 02:20 050 1 gusting 6 21.7
2020-Aug-06 02:15 067 1 gusting 6 21.7
2020-Aug-06 02:10 184 1 gusting 7 21.7
2020-Aug-06 02:05 220 2 gusting 6 21.7
2020-Aug-06 02:00 034 1 gusting 7 22.2
2020-Aug-06 01:55 005 3 gusting 7 22.2
2020-Aug-06 01:50 066 4 gusting 7 22.2
2020-Aug-06 01:45 112 2 gusting 6 22.8
2020-Aug-06 01:40 055 1 gusting 10 22.8
2020-Aug-06 01:35 125 2 gusting 10 22.8
2020-Aug-06 01:30 076 2 gusting 8 23.3
2020-Aug-06 01:25 058 1 gusting 6 23.3
2020-Aug-06 01:20 017 3 gusting 9 23.3
2020-Aug-06 01:15 117 3 gusting 9 23.9
2020-Aug-06 01:10 114 1 gusting 7 23.9
2020-Aug-06 01:05 139 3 gusting 7 23.9
2020-Aug-06 01:00 088 2 gusting 6 24.4
2020-Aug-06 00:55 069 1 gusting 7 24.4
2020-Aug-06 00:50 030 1 gusting 7 24.4
2020-Aug-06 00:45 147 3 gusting 7 25.0
2020-Aug-06 00:40 321 2 gusting 7 25.0
2020-Aug-06 00:35 207 3 gusting 9 25.6
2020-Aug-06 00:30 086 2 gusting 9 26.1
2020-Aug-06 00:25 078 3 gusting 10 26.1
2020-Aug-06 00:20 344 3 gusting 10 26.1
2020-Aug-06 00:15 098 1 gusting 8 26.1
2020-Aug-06 00:10 055 2 gusting 8 26.1
2020-Aug-06 00:05 093 3 gusting 7 26.7
2020-Aug-06 00:00 089 3 gusting 11 26.7
2020-Aug-05 23:55 126 4 gusting 11 26.7
2020-Aug-05 23:50 098 2 gusting 7 27.2
2020-Aug-05 23:45 148 3 gusting 9 27.2
2020-Aug-05 23:40 051 3 gusting 9 27.2
2020-Aug-05 23:35 257 2 gusting 6 27.2
2020-Aug-05 23:30 061 2 gusting 6 27.2
2020-Aug-05 23:25 073 2 gusting 6 27.8
2020-Aug-05 23:20 076 2 gusting 6 27.8
2020-Aug-05 23:15 360 1 gusting 12 27.8
2020-Aug-05 23:10 206 3 gusting 11 27.8
2020-Aug-05 23:05 155 5 gusting 10 27.8
2020-Aug-05 23:00 041 1 gusting 9 27.8
2020-Aug-05 22:55 080 1 gusting 9 27.8
2020-Aug-05 22:50 088 2 gusting 8 27.8
2020-Aug-05 22:45 058 3 gusting 8 27.8
2020-Aug-05 22:40 067 3 gusting 8 27.8
2020-Aug-05 22:35 329 2 gusting 7 27.8
2020-Aug-05 22:30 140 3 gusting 7 28.3
2020-Aug-05 22:25 115 3 gusting 7 28.3
2020-Aug-05 22:20 147 2 gusting 8 28.3
2020-Aug-05 22:15 124 3 gusting 8 28.3
2020-Aug-05 22:10 005 1 gusting 9 28.3
2020-Aug-05 22:05 152 3 gusting 9 28.3
2020-Aug-05 22:00 211 1 gusting 9 28.3
2020-Aug-05 21:55 340 2 gusting 9 27.8
2020-Aug-05 21:50 355 3 gusting 9 27.8
2020-Aug-05 21:45 317 4 gusting 7 27.8
2020-Aug-05 21:40 122 4 gusting 10 27.8
2020-Aug-05 21:35 113 3 gusting 10 27.8
2020-Aug-05 21:30 101 4 gusting 10 27.8
2020-Aug-05 21:25 074 2 gusting 13 27.8
2020-Aug-05 21:20 150 5 gusting 11 27.8
2020-Aug-05 21:15 014 2 gusting 8 27.8
2020-Aug-05 21:10 250 1 gusting 13 27.8
2020-Aug-05 21:05 291 1 gusting 13 27.2
2020-Aug-05 21:00 082 1 gusting 10 27.2
2020-Aug-05 20:55 097 3 gusting 9 27.2
2020-Aug-05 20:50 053 2 gusting 12 27.2
2020-Aug-05 20:45 191 3 gusting 12 26.7
2020-Aug-05 20:40 061 1 gusting 10 26.7
2020-Aug-05 20:35 104 2 gusting 10 26.7
2020-Aug-05 20:30 113 3 gusting 11 26.1
2020-Aug-05 20:25 107 5 gusting 12 26.1
2020-Aug-05 20:20 101 7 gusting 12 25.6
2020-Aug-05 20:15 274 3 gusting 12 25.6
2020-Aug-05 20:10 090 6 gusting 10 25.0
2020-Aug-05 20:05 095 7 gusting 13 25.0
2020-Aug-05 20:00 075 6 gusting 13 25.0
2020-Aug-05 19:55 100 8 gusting 13 24.4
2020-Aug-05 19:50 095 9 gusting 13 23.9
2020-Aug-05 19:45 061 6 gusting 11 23.3
2020-Aug-05 19:40 092 6 gusting 8 23.3
2020-Aug-05 19:35 091 6 gusting 8 22.8
2020-Aug-05 19:30 092 6 gusting 8 22.8
2020-Aug-05 19:25 084 6 gusting 9 22.8
2020-Aug-05 19:20 081 6 gusting 13 22.2
2020-Aug-05 19:15 096 8 gusting 13 22.2
2020-Aug-05 19:10 054 5 gusting 8 22.2
2020-Aug-05 19:05 100 5 gusting 10 21.7
2020-Aug-05 19:00 076 6 gusting 11 21.7